Résultats de la compétition "Championnat d'Alsace Moyenne Distance " du 06-05-2007 organisée par le club 6806
     
  Télécharger le fichier CSV.  
     
     

 Circuit "CIRCUIT A"

Licence Nom Prénom Temps CN
précédent
Score sur
la course
Différence
1911MEYERKirian0:32:37N/A5916N/A
4445POIRSONThomas0:34:59N/A5516N/A
12759SCHAMBERGERPierre0:36:57N/A5222N/A
10259HAURYAndre0:37:17N/A5176N/A
13040VILLARChristophe0:40:36N/A4753N/A
1335BEAUDEUXPhilippe0:41:03N/A4701N/A
18689MARTINFalk0:41:30N/A4650N/A
10814HILDEBRANDPierre0:41:36N/A4638N/A
312JOLYThierry0:42:06N/A4583N/A
7004PHILIPPERenaud0:42:13N/A4571N/A
341FREYVincent0:42:55N/A4496N/A
5743MOLLDavid0:43:08N/A4474N/A
2796LEGALLAISJ-Luc0:43:48N/A4405N/A
302BAGUEREYBaptiste0:43:56N/A4392N/A
11513HAURYGilles0:44:08N/A4372N/A
366VESCOVOJ-Albert0:44:46N/A4310N/A
11430BERNAUERChristophe0:44:59N/A4290N/A
11615ANDRESAugustin0:46:08N/A4183N/A
11875FRANCOISGerald0:46:22N/A4162N/A
12762MARCHANDChristophe0:46:42N/A4132N/A
15851HEIZMANJohannes0:47:02N/A4103N/A
346LAHAUSSEOlivier0:47:36N/A4054N/A
13237POULAINAntoine0:47:41N/A4047N/A
13178HOLLNicolas0:48:44N/A3960N/A
706BACHEREdith0:48:52N/A3949N/A
7256PIBAROTSteve0:49:24N/A3906N/A
2372DIETSCHBernard0:49:33N/A3894N/A
5631BETTINGERJ-Michel0:49:51N/A3871N/A
4586MITTERANDBruno0:49:53N/A3868N/A
13331SEILLERFabien0:50:27N/A3825N/A
10428PHILIPPEEudes0:51:45N/A3729N/A
10901RAVENELPhilippe0:52:26N/A3680N/A
1897FRICKBernard0:54:11N/A3561N/A
1910MEYERJ-Marc0:55:00N/A3508N/A
16260SCHNEBELENJulien0:57:18N/A3368N/A
17647STEINThomas0:58:03N/A3324N/A
3905JOUFFROYMichel0:58:07N/A3320N/A
6819HOUDAYERPhilippe1:03:57N/A3017N/A
15852CLEYET-MERLEChristophe1:04:41N/A2983N/A
7967ROUAULTThierry1:05:24N/A2950N/A
16683NOEGELENFabian1:08:46N/A2806N/A
18199BERGOENDJ. Robert1:09:32N/A2775N/A
10144GRANDEMANGEPhilippe1:09:43N/A2768N/A
10812DRUZETICStephane1:09:57N/A2759N/A
17080SCHAMBERGERDaniel1:12:10N/A2674N/A
18665SOLTYSIAKCezary1:17:54N/A2477N/A
18731DALONAlexandre1:24:24N/A2286N/A
17077MATTERJulien1:26:34N/A2229N/A
13693HAURYMarc1:55:32N/A1670N/A
2277HELSTROFFERSylvainN/AN/A0N/A
17279FINOCCHIOJ-LucN/AN/A0N/A
18770VARINFredericN/AN/A0N/A
13636KORCHAKTomN/AN/A0N/A

  Indice de confiance du circuit (moyenne des différences entre CN et score sur la course des 3 à 10 premiers) : 176






 Retour